Weather History for Sunlight Mountain, CO

Change the Weather History Date:

Thursday, November 14, 2013

  Actual Average (KRIL) Record (KRIL)
Temperature  
Mean Temperature 30 °F 36 °F  
Max Temperature 35 °F 49 °F 68 °F (1990)
Min Temperature 26 °F 24 °F -8 °F (1916)
Degree Days  
Heating Degree Days 34 29  
Month to date heating degree days 361  
Since 1 July heating degree days 1005  
Cooling Degree Days 0 0  
Month to date cooling degree days 0  
Year to date cooling degree days 541  
Moisture  
Dew Point 22 °F    
Average Humidity 73    
Maximum Humidity 100    
Minimum Humidity 38    
Precipitation  
Precipitation 0.00 in 0.03 in 0.50 in (1968)
Month to date precipitation 0.65  
Year to date precipitation 13.01  
Sea Level Pressure  
Sea Level Pressure 30.17 in    
Wind  
Wind Speed 2 mph (SW)    
Max Wind Speed 6 mph    
Max Gust Speed -    
Visibility 8 miles    
Events Fog , Snow    
T = Trace of Precipitation, MM = Missing Value Source: NWS Daily Summary

Daily Weather History Graph

Daily Weather History Graph

Search for Another Location

Airport:

Trip Planner

Search our weather history database for the weather conditions in past years. The results will help you decide how hot, cold, wet, or windy it might be!

Date:

Astronomy

Nov. 14, 2013 Rise Set
Actual Time 6:52 AM MST 4:55 PM MST
Civil Twilight 6:23 AM MST 5:23 PM MST
Nautical Twilight 5:51 AM MST 5:56 PM MST
Astronomical Twilight 5:19 AM MST 6:27 PM MST
Moon 3:17 PM MST (11/14) 3:51 AM MST (11/14)
Length of Visible Light 10h 59m
Length of Day
10h 02m
Waxing Gibbous, 92% of the Moon is Illuminated
Nov 14
Waxing Gibbous
Nov 17
Full
Nov 25
Last Quarter
Dec 2
New
Dec 9
First Quarter

Hourly Weather History & Observations

Time (MST) Temp. Windchill Dew Point Humidity Pressure Visibility Wind Dir Wind Speed Gust Speed Precip Events Conditions
12:02 AM 32.0 °F 28.7 °F 23.0 °F 69% 30.27 in 10.0 mi WSW 3.5 mph - N/A   Overcast
12:23 AM 30.2 °F 26.7 °F 23.0 °F 75% 30.27 in 10.0 mi SW 3.5 mph - N/A   Overcast
12:43 AM 32.0 °F 26.4 °F 23.0 °F 69% 30.27 in 10.0 mi West 5.8 mph - N/A   Overcast
1:03 AM 30.2 °F - 23.0 °F 75% 30.26 in 10.0 mi Calm Calm - N/A   Mostly Cloudy
1:23 AM 30.2 °F - 23.0 °F 75% 30.26 in 10.0 mi Calm Calm - N/A   Mostly Cloudy
1:43 AM 30.2 °F 26.7 °F 23.0 °F 75% 30.26 in 10.0 mi West 3.5 mph - N/A   Overcast
2:03 AM 30.2 °F - 23.0 °F 75% 30.26 in 10.0 mi Calm Calm - N/A   Overcast
2:23 AM 28.4 °F - 23.0 °F 80% 30.26 in 10.0 mi Calm Calm - N/A   Overcast
2:42 AM 28.4 °F 24.6 °F 23.0 °F 80% 30.26 in 10.0 mi WSW 3.5 mph - N/A   Overcast
3:03 AM 28.4 °F 24.6 °F 26.6 °F 93% 30.26 in 10.0 mi West 3.5 mph - N/A   Mostly Cloudy
3:23 AM 28.4 °F - 26.6 °F 93% 30.26 in 7.0 mi Calm Calm - N/A Snow Light Snow
3:42 AM 28.4 °F 22.2 °F 26.6 °F 93% 30.26 in 4.0 mi West 5.8 mph - N/A Snow Light Snow
4:03 AM 28.4 °F - 26.6 °F 93% 30.26 in 1.5 mi Calm Calm - N/A Snow Light Snow
4:23 AM 28.4 °F - 28.4 °F 100% 30.25 in 3.0 mi Calm Calm - N/A Snow Light Snow
4:43 AM 28.4 °F 23.3 °F 28.4 °F 100% 30.25 in 0.2 mi West 4.6 mph - N/A Snow Light Snow
5:02 AM 28.4 °F - 28.4 °F 100% 30.25 in 0.2 mi Calm Calm - N/A Fog Light Freezing Fog
5:23 AM 28.4 °F - 28.4 °F 100% 30.25 in 0.2 mi Calm Calm - N/A Fog Light Freezing Fog
5:44 AM 28.4 °F - 26.6 °F 93% 30.25 in 0.5 mi Calm Calm - N/A Fog Light Freezing Fog
6:03 AM 28.4 °F - 26.6 °F 93% 30.25 in 0.2 mi Calm Calm - N/A Fog Light Freezing Fog
6:24 AM 28.4 °F - 26.6 °F 93% 30.24 in 0.8 mi Calm Calm - N/A   Overcast
6:44 AM 28.4 °F - 26.6 °F 93% 30.24 in 1.0 mi Calm Calm - N/A   Overcast
7:04 AM 28.4 °F - 26.6 °F 93% 30.25 in 4.0 mi Calm Calm - N/A   Overcast
7:24 AM 26.6 °F - 26.6 °F 100% 30.25 in 3.0 mi Calm Calm - N/A   Overcast
7:43 AM 26.6 °F - 26.6 °F 100% 30.24 in 10.0 mi Calm Calm - N/A   Mostly Cloudy
8:04 AM - - - N/A% 30.25 in 10.0 mi Calm Calm - N/A   Scattered Clouds
8:23 AM 26.6 °F - 24.8 °F 93% 30.26 in 10.0 mi Calm Calm - N/A   Clear
8:43 AM 28.4 °F - 24.8 °F 86% 30.26 in 10.0 mi Calm Calm - N/A   Scattered Clouds
9:04 AM 28.4 °F - 26.6 °F 93% 30.25 in 10.0 mi Calm Calm - N/A   Scattered Clouds
9:23 AM 28.4 °F - 26.6 °F 93% 30.25 in 10.0 mi Calm Calm - N/A   Clear
9:44 AM 28.4 °F - 26.6 °F 93% 30.25 in 10.0 mi Calm Calm - N/A   Clear
10:03 AM 28.4 °F - 24.8 °F 86% 30.25 in 10.0 mi Calm Calm - N/A   Scattered Clouds
10:23 AM 30.2 °F - 26.6 °F 86% 30.25 in 10.0 mi Calm Calm - N/A   Scattered Clouds
10:44 AM 32.0 °F - 26.6 °F 80% 30.25 in 10.0 mi Calm Calm - N/A   Scattered Clouds
11:02 AM 32.0 °F - 26.6 °F 80% 30.25 in 10.0 mi Calm Calm - N/A   Clear
11:24 AM 32.0 °F 28.7 °F 24.8 °F 75% 30.24 in 10.0 mi SW 3.5 mph - N/A   Clear
11:44 AM 32.0 °F - 23.0 °F 69% 30.22 in 10.0 mi Calm Calm - N/A   Clear
12:04 PM 33.8 °F - 19.4 °F 56% 30.22 in 10.0 mi Calm Calm - N/A   Clear
12:24 PM 33.8 °F 29.6 °F 21.2 °F 60% 30.20 in 10.0 mi WSW 4.6 mph - N/A   Clear
12:44 PM 33.8 °F 30.8 °F 21.2 °F 60% 30.20 in 10.0 mi WSW 3.5 mph - N/A   Clear
1:03 PM 35.6 °F - 21.2 °F 56% 30.18 in 10.0 mi Calm Calm - N/A   Clear
1:23 PM 35.6 °F - 19.4 °F 52% 30.17 in 10.0 mi Calm Calm - N/A   Clear
1:44 PM 35.6 °F - 21.2 °F 56% 30.17 in 10.0 mi Calm Calm - N/A   Clear
2:04 PM 35.6 °F - 12.2 °F 38% 30.16 in 10.0 mi Calm Calm - N/A   Clear
2:23 PM 35.6 °F - 12.2 °F 38% 30.15 in 10.0 mi Calm Calm - N/A   Clear
2:44 PM 35.6 °F - 15.8 °F 44% 30.15 in 10.0 mi Calm Calm - N/A   Clear
3:04 PM 35.6 °F - 17.6 °F 48% 30.13 in 10.0 mi Calm Calm - N/A   Clear
3:24 PM 35.6 °F - 17.6 °F 48% 30.13 in 10.0 mi Calm Calm - N/A   Clear
3:44 PM 35.6 °F - 15.8 °F 44% 30.12 in 10.0 mi Calm Calm - N/A   Clear
4:04 PM 33.8 °F - 19.4 °F 56% 30.12 in 10.0 mi Calm Calm - N/A   Clear
4:24 PM 32.0 °F - 21.2 °F 64% 30.11 in 10.0 mi Calm Calm - N/A   Clear
4:43 PM 32.0 °F 28.7 °F 21.2 °F 64% 30.10 in 10.0 mi SW 3.5 mph - N/A   Clear
5:04 PM 32.0 °F 28.7 °F 21.2 °F 64% 30.09 in 10.0 mi SSW 3.5 mph - N/A   Clear
5:24 PM 32.0 °F 27.5 °F 23.0 °F 69% 30.09 in 10.0 mi SSW 4.6 mph - N/A   Clear
5:44 PM 32.0 °F 28.7 °F 23.0 °F 69% 30.09 in 10.0 mi SW 3.5 mph - N/A   Clear
6:03 PM 30.2 °F - 23.0 °F 75% 30.09 in 10.0 mi Calm Calm - N/A   Clear
6:24 PM 30.2 °F - 21.2 °F 69% 30.08 in 10.0 mi Calm Calm - N/A   Clear
6:44 PM 30.2 °F 26.7 °F 23.0 °F 75% 30.07 in 10.0 mi SW 3.5 mph - N/A   Clear
7:04 PM 30.2 °F - 23.0 °F 75% 30.06 in 10.0 mi Calm Calm - N/A   Clear
7:23 PM 30.2 °F - 21.2 °F 69% 30.06 in 10.0 mi Calm Calm - N/A   Clear
7:44 PM 30.2 °F - 21.2 °F 69% 30.05 in 10.0 mi Calm Calm - N/A   Clear
8:04 PM 28.4 °F - 19.4 °F 69% 30.04 in 10.0 mi Calm Calm - N/A   Clear
8:23 PM 28.4 °F - 19.4 °F 69% 30.04 in 10.0 mi Calm Calm - N/A   Clear
8:44 PM 28.4 °F - 17.6 °F 64% 30.03 in 10.0 mi Calm Calm - N/A   Clear
9:04 PM 28.4 °F - 15.8 °F 59% 30.02 in 10.0 mi Calm Calm - N/A   Clear
9:24 PM 28.4 °F - 14.0 °F 55% 30.00 in 10.0 mi Calm Calm - N/A   Clear
9:43 PM 28.4 °F - 15.8 °F 59% 30.00 in 10.0 mi Calm Calm - N/A   Clear
10:04 PM 28.4 °F 24.6 °F 15.8 °F 59% 29.98 in 10.0 mi SSW 3.5 mph - N/A   Clear
10:24 PM 28.4 °F 24.6 °F 15.8 °F 59% 29.98 in 10.0 mi SSW 3.5 mph - N/A   Clear
10:44 PM 28.4 °F - 14.0 °F 55% 29.96 in 10.0 mi Calm Calm - N/A   Clear
11:04 PM 28.4 °F 24.6 °F 15.8 °F 59% 29.94 in 10.0 mi SSW 3.5 mph - N/A   Clear
11:23 PM 30.2 °F 26.7 °F 15.8 °F 55% 29.94 in 10.0 mi SW 3.5 mph - N/A   Clear